| time (UTC) | temp C | wind direction | speed KPH | gust KPH | rain 1hr cm | rain 24hr cm | rain mn cm | humidity % | barometer mb |
| 20260502170305 | 11 | 359 | 6.4 | 12.9 | 0.00 | 0.00 | 0.00 | 37 | 1019.0 |
| 20260502164304 | 11 | 360 | 17.7 | 0.0 | 0.00 | 0.00 | 0.00 | 69 | 1020.0 |
| 20260502163303 | 11 | 360 | 17.7 | 0.0 | 0.00 | 0.00 | 0.00 | 72 | 1019.0 |
| 20260502162304 | 11 | 360 | 17.7 | 0.0 | 0.00 | 0.00 | 0.00 | 75 | 1020.0 |
| 20260502161302 | 11 | 360 | 17.7 | 0.0 | 0.00 | 0.00 | 0.00 | 74 | 1019.0 |
| 20260502160301 | 11 | 360 | 17.7 | 0.0 | 0.00 | 0.00 | 0.00 | 67 | 1019.0 |
| 20260502152259 | 12 | 360 | 17.7 | 0.0 | 0.00 | 0.00 | 0.00 | 83 | 1020.0 |
| 20260502151258 | 12 | 360 | 17.7 | 0.0 | 0.00 | 0.00 | 0.00 | 82 | 1019.0 |
| 20260502150258 | 12 | 20 | 17.7 | 0.0 | 0.00 | 0.00 | 0.00 | 76 | 1019.0 |
| 20260502130250 | 11 | 10 | 27.4 | 0.0 | 0.00 | 0.00 | 0.00 | 79 | 1018.0 |
| 20260502123248 | 12 | 10 | 27.4 | 0.0 | 0.00 | 0.00 | 0.00 | 75 | 1018.0 |
| 20260502122248 | 12 | 303 | 12.9 | 20.9 | 0.00 | 0.00 | 0.00 | 66 | 1020.0 |
| 20260502121247 | 12 | 303 | 12.9 | 20.9 | 0.00 | 0.00 | 0.00 | 64 | 1020.0 |
| 20260502120247 | 12 | 303 | 12.9 | 20.9 | 0.00 | 0.00 | 0.00 | 63 | 1017.0 |
| 20260502115246 | 12 | 303 | 12.9 | 20.9 | 0.00 | 0.00 | 0.00 | 63 | 1017.0 |
| 20260502114245 | 12 | 303 | 12.9 | 20.9 | 0.00 | 0.00 | 0.00 | 63 | 1016.0 |
| 20260502113245 | 12 | 303 | 12.9 | 20.9 | 0.00 | 0.00 | 0.00 | 63 | 1016.0 |
| 20260502112244 | 12 | 303 | 12.9 | 20.9 | 0.00 | 0.00 | 0.00 | 64 | 1015.0 |
| 20260502111243 | 12 | 303 | 12.9 | 20.9 | 0.00 | 0.00 | 0.00 | 65 | 1015.0 |
| 20260502110243 | 12 | 4 | 8.0 | 17.7 | 0.00 | 0.00 | 0.00 | 67 | 1015.0 |
| 20260502105242 | 12 | 305 | 8.0 | 17.7 | 0.00 | 0.00 | 0.00 | 67 | 1015.0 |
| 20260502104242 | 12 | 305 | 8.0 | 17.7 | 0.00 | 0.00 | 0.00 | 69 | 1015.0 |
| 20260502103241 | 12 | 359 | 8.0 | 17.7 | 0.00 | 0.00 | 0.00 | 70 | 1015.0 |
| 20260502102240 | 12 | 359 | 8.0 | 17.7 | 0.00 | 0.00 | 0.00 | 70 | 1015.0 |
| 20260502101240 | 12 | 359 | 8.0 | 17.7 | 0.00 | 0.00 | 0.00 | 70 | 1015.0 |
| 20260502100239 | 12 | 359 | 8.0 | 17.7 | 0.00 | 0.00 | 0.00 | 70 | 1015.0 |
| 20260502091236 | 12 | 359 | 8.0 | 17.7 | 0.00 | 0.00 | 0.00 | 66 | 1015.0 |
| 20260502090236 | 12 | 359 | 8.0 | 17.7 | 0.00 | 0.00 | 0.00 | 65 | 1015.0 |
| 20260502071229 | 12 | 354 | 8.0 | 12.9 | 0.00 | 0.00 | 0.00 | 41 | 1015.0 |
| 20260502070229 | 12 | 354 | 8.0 | 12.9 | 0.00 | 0.00 | 0.00 | 38 | 1015.0 |
| 20260502065228 | 12 | 354 | 8.0 | 12.9 | 0.00 | 0.00 | 0.00 | 37 | 1014.0 |
| 20260502064227 | 13 | 354 | 8.0 | 12.9 | 0.00 | 0.00 | 0.00 | 35 | 1014.0 |
| 20260502063227 | 13 | 354 | 8.0 | 12.9 | 0.00 | 0.00 | 0.00 | 28 | 1014.0 |
| 20260502062226 | 13 | 349 | 6.4 | 12.9 | 0.00 | 0.00 | 0.00 | 27 | 1013.0 |
| 20260502061225 | 13 | 4 | 4.8 | 16.1 | 0.00 | 0.00 | 0.00 | 26 | 1013.0 |
| 20260502060225 | 13 | 354 | 6.4 | 17.7 | 0.00 | 0.00 | 0.00 | 24 | 1013.0 |
| 20260502055224 | 13 | 14 | 12.9 | 17.7 | 0.00 | 0.00 | 0.00 | 29 | 1013.0 |
| 20260502054223 | 13 | 14 | 12.9 | 17.7 | 0.00 | 0.00 | 0.00 | 27 | 1013.0 |
| 20260502053223 | 13 | 14 | 14.5 | 17.7 | 0.00 | 0.00 | 0.00 | 10 | 1013.0 |
| 20260502052222 | 13 | 359 | 12.9 | 22.5 | 0.00 | 0.00 | 0.00 | 19 | 1013.0 |
| 20260502051222 | 13 | 349 | 8.0 | 17.7 | 0.00 | 0.00 | 0.00 | 20 | 1013.0 |
| 20260502050221 | 13 | 359 | 8.0 | 20.9 | 0.00 | 0.00 | 0.00 | 24 | 1013.0 |
| 20260502045220 | 13 | 359 | 8.0 | 20.9 | 0.00 | 0.00 | 0.00 | 24 | 1013.0 |
| 20260502044219 | 13 | 16 | 8.0 | 20.9 | 0.00 | 0.00 | 0.00 | 28 | 1013.0 |
| 20260502043219 | 13 | 359 | 8.0 | 22.5 | 0.00 | 0.00 | 0.00 | 32 | 1014.0 |
| 20260502042218 | 15 | 21 | 14.5 | 16.1 | 0.00 | 0.00 | 0.00 | 10 | 1011.0 |
| 20260502041218 | 15 | 21 | 14.5 | 16.1 | 0.00 | 0.00 | 0.00 | 10 | 1011.0 |
| 20260502040217 | 15 | 20 | 29.0 | 0.0 | 0.00 | 0.00 | 0.00 | 10 | 1011.0 |
| 20260502035217 | 15 | 20 | 29.0 | 0.0 | 0.00 | 0.00 | 0.00 | 82 | 1011.0 |
| 20260502034216 | 16 | 20 | 29.0 | 0.0 | 0.00 | 0.00 | 0.00 | 93 | 1010.0 |
| 20260502033215 | 16 | 20 | 29.0 | 0.0 | 0.00 | 0.00 | 0.00 | 93 | 1010.0 |
| 20260502032214 | 16 | 20 | 29.0 | 0.0 | 0.00 | 0.00 | 0.00 | 85 | 1010.0 |
| 20260502031214 | 17 | 20 | 29.0 | 0.0 | 0.00 | 0.00 | 0.00 | 85 | 1010.0 |
| 20260502030214 | 17 | 20 | 29.0 | 0.0 | 0.00 | 0.00 | 0.00 | 85 | 1010.0 |
| 20260502025213 | 17 | 20 | 29.0 | 0.0 | 0.00 | 0.00 | 0.00 | 85 | 1010.0 |
| 20260502024212 | 17 | 20 | 29.0 | 0.0 | 0.00 | 0.00 | 0.00 | 86 | 1010.0 |
| 20260502023211 | 18 | 20 | 29.0 | 0.0 | 0.00 | 0.00 | 0.00 | 86 | 1009.0 |
| 20260502022211 | 18 | 20 | 29.0 | 0.0 | 0.00 | 0.00 | 0.00 | 85 | 1009.0 |
| 20260502021216 | 18 | 20 | 29.0 | 0.0 | 0.00 | 0.00 | 0.00 | 85 | 1009.0 |
| 20260502020210 | 18 | 20 | 29.0 | 0.0 | 0.00 | 0.00 | 0.00 | 84 | 1009.0 |
| 20260502015209 | 18 | 30 | 27.4 | 0.0 | 0.00 | 0.00 | 0.00 | 84 | 1009.0 |
| 20260502014208 | 19 | 30 | 27.4 | 0.0 | 0.00 | 0.00 | 0.00 | 83 | 1009.0 |
| 20260502013208 | 20 | 30 | 27.4 | 0.0 | 0.00 | 0.00 | 0.00 | 82 | 1008.0 |
| 20260502012207 | 20 | 30 | 27.4 | 0.0 | 0.00 | 0.00 | 0.00 | 82 | 1008.0 |
| 20260502011207 | 20 | 30 | 27.4 | 0.0 | 0.00 | 0.00 | 0.00 | 82 | 1008.0 |
| 20260502010206 | 20 | 20 | 29.0 | 0.0 | 0.00 | 0.00 | 0.00 | 72 | 1007.0 |
| 20260502005205 | 20 | 20 | 29.0 | 0.0 | 0.00 | 0.00 | 0.00 | 76 | 1007.0 |
| 20260502004205 | 21 | 20 | 29.0 | 0.0 | 0.00 | 0.00 | 0.00 | 86 | 1007.0 |
| 20260502003204 | 24 | 20 | 29.0 | 0.0 | 0.00 | 0.00 | 0.00 | 10 | 1006.0 |
| 20260502002203 | 24 | 20 | 29.0 | 0.0 | 0.00 | 0.00 | 0.00 | 10 | 1006.0 |
| 20260502001203 | 22 | 20 | 29.0 | 0.0 | 0.00 | 0.00 | 0.00 | 63 | 1006.0 |
| 20260502000203 | 22 | 20 | 22.5 | 0.0 | 0.00 | 0.00 | 0.00 | 62 | 1006.0 |
| 20260501235201 | 22 | 20 | 22.5 | 0.0 | 0.00 | 0.00 | 0.00 | 61 | 1006.0 |
| 20260501234201 | 25 | 20 | 22.5 | 0.0 | 0.00 | 0.00 | 0.00 | 69 | 1006.0 |
| 20260501233200 | 25 | 20 | 22.5 | 0.0 | 0.00 | 0.00 | 0.00 | 52 | 1006.0 |
| 20260501232200 | 25 | 20 | 22.5 | 0.0 | 0.00 | 0.00 | 0.00 | 51 | 1006.0 |
| 20260501231159 | 25 | 20 | 22.5 | 0.0 | 0.00 | 0.00 | 0.00 | 50 | 1006.0 |
| 20260501230159 | 25 | 10 | 17.7 | 0.0 | 0.00 | 0.00 | 0.00 | 49 | 1006.0 |
| 20260501225158 | 25 | 10 | 17.7 | 0.0 | 0.00 | 0.00 | 0.00 | 48 | 1006.0 |
| 20260501224157 | 26 | 10 | 19.3 | 0.0 | 0.00 | 0.00 | 0.00 | 46 | 1006.0 |
| 20260501223157 | 26 | 10 | 19.3 | 0.0 | 0.00 | 0.00 | 0.00 | 44 | 1006.0 |
| 20260501222156 | 26 | 10 | 19.3 | 0.0 | 0.00 | 0.00 | 0.00 | 42 | 1005.0 |
| 20260501221155 | 27 | 10 | 19.3 | 0.0 | 0.00 | 0.00 | 0.00 | 41 | 1005.0 |
| 20260501220155 | 27 | 360 | 17.7 | 0.0 | 0.00 | 0.00 | 0.00 | 40 | 1005.0 |
| 20260501215154 | 27 | 360 | 17.7 | 0.0 | 0.00 | 0.00 | 0.00 | 38 | 1005.0 |
| 20260501214153 | 26 | 360 | 19.3 | 0.0 | 0.00 | 0.00 | 0.00 | 42 | 1005.0 |
| 20260501213153 | 26 | 360 | 19.3 | 0.0 | 0.00 | 0.00 | 0.00 | 43 | 1006.0 |
| 20260501212152 | 26 | 360 | 19.3 | 0.0 | 0.00 | 0.00 | 0.00 | 43 | 1006.0 |
| 20260501211152 | 26 | 360 | 19.3 | 0.0 | 0.00 | 0.00 | 0.00 | 42 | 1006.0 |
| 20260501210151 | 27 | 360 | 12.9 | 0.0 | 0.00 | 0.00 | 0.00 | 35 | 1006.0 |
| 20260501205151 | 27 | 360 | 12.9 | 0.0 | 0.00 | 0.00 | 0.00 | 34 | 1006.0 |
| 20260501204150 | 27 | 360 | 12.9 | 0.0 | 0.00 | 0.00 | 0.00 | 35 | 1006.0 |
| 20260501203150 | 27 | 360 | 12.9 | 0.0 | 0.00 | 0.00 | 0.00 | 37 | 1006.0 |
| 20260501202149 | 27 | 360 | 12.9 | 0.0 | 0.00 | 0.00 | 0.00 | 38 | 1007.0 |
| 20260501201149 | 26 | 360 | 12.9 | 0.0 | 0.00 | 0.00 | 0.00 | 35 | 1006.0 |
| 20260501200148 | 26 | 360 | 12.9 | 0.0 | 0.00 | 0.00 | 0.00 | 38 | 1006.0 |
| 20260501195147 | 25 | 360 | 12.9 | 0.0 | 0.00 | 0.00 | 0.00 | 39 | 1006.0 |
| 20260501194147 | 25 | 360 | 12.9 | 0.0 | 0.00 | 0.00 | 0.00 | 48 | 1006.0 |
| 20260501193146 | 25 | 360 | 12.9 | 0.0 | 0.00 | 0.00 | 0.00 | 51 | 1006.0 |
| 20260501192145 | 25 | 360 | 12.9 | 0.0 | 0.00 | 0.00 | 0.00 | 52 | 1007.0 |
| 20260501191145 | 24 | 360 | 12.9 | 0.0 | 0.00 | 0.00 | 0.00 | 56 | 1007.0 |
| 20260501184143 | 24 | 10 | 14.5 | 0.0 | 0.00 | 0.00 | 0.00 | 57 | 1007.0 |
| 20260501183142 | 24 | 10 | 14.5 | 0.0 | 0.00 | 0.00 | 0.00 | 59 | 1007.0 |
| 20260501182142 | 24 | 360 | 16.1 | 0.0 | 0.00 | 0.00 | 0.00 | 76 | 1007.0 |
| 20260501181141 | 25 | 360 | 16.1 | 0.0 | 0.00 | 0.00 | 0.00 | 10 | 1007.0 |
| 20260501180140 | 26 | 360 | 16.1 | 0.0 | 0.00 | 0.00 | 0.00 | 10 | 1008.0 |
| 20260501175140 | 26 | 360 | 16.1 | 0.0 | 0.00 | 0.00 | 0.00 | 10 | 1008.0 |
| 20260501174139 | 26 | 360 | 16.1 | 0.0 | 0.00 | 0.00 | 0.00 | 10 | 1008.0 |
| 20260501173138 | 23 | 360 | 17.7 | 0.0 | 0.00 | 0.00 | 0.00 | 10 | 1008.0 |
| 20260501172138 | 25 | 360 | 17.7 | 0.0 | 0.00 | 0.00 | 0.00 | 10 | 1009.0 |